Zurück zum Katalog

STARLINK-32739

AktivKommunikationVLEO
NORAD 62498·PAYLOAD·🇺🇸 United States

Gestartet Jan 6, 2025 von Cape Canaveral Space Force Station

Loading…

Nächste Überflüge (nächste 24 Stunden)

TLE

AktuellSource: CelesTrak SupGP

Epoche: Sep 15, 2026, 02:33 UTC

1 62498C 25003M   26258.10673611  .00030651  00000+0  11101-2 0  2585
2 62498  43.0004 299.2244 0001453 267.0321 345.2173 15.27565398    15

Verfolge STARLINK-32739 in Echtzeit mit AllMySat

Download on the App Store